Fulton, NY

7:56 AM EDT on October 22, 2017 (GMT -0400)
Oswego County

Weather History for KFZY - August, 2014

Change the Weather History Date:

Sunday, August 10, 2014

  Actual Average (KSYR) Record (KSYR)
Temperature  
Mean Temperature 68 °F -  
Max Temperature 82 °F 80 °F 97 °F (1949)
Min Temperature 53 °F 60 °F 48 °F (1948)
Cooling Degree Days 2    
Growing Degree Days 18 (Base 50)    
Moisture  
Dew Point 57 °F    
Average Humidity 74    
Maximum Humidity 97    
Minimum Humidity 42    
Precipitation  
Precipitation 0.00 in - - ()
Sea Level Pressure  
Sea Level Pressure 30.14 in    
Wind  
Wind Speed 1 mph (NE)    
Max Wind Speed 10 mph    
Max Gust Speed -    
Visibility 8 miles    
Events      
Averages and records for this station are not official NWS values.
T = Trace of Precipitation, MM = Missing Value Source: NWS Daily Summary

Daily Weather History Graph

Daily Weather History Graph

Search for Another Location

Airport or City:

Trip Planner

Search our weather history database for the weather conditions in past years. The results will help you decide how hot, cold, wet, or windy it might be!

Date:

Astronomy

Aug. 10, 2014 Rise Set
Actual Time 6:05 AM EDT 8:15 PM EDT
Civil Twilight 5:33 AM EDT 8:47 PM EDT
Nautical Twilight 4:54 AM EDT 9:25 PM EDT
Astronomical Twilight 4:12 AM EDT 10:08 PM EDT
Moon 7:58 PM EDT (8/10) 5:56 AM EDT (8/10)
Length of Visible Light 15h 13m
Length of Day
14h 10m
Full, 100% of the Moon is Illuminated
Aug 10
Full
Aug 10
Full
Aug 17
Last Quarter
Aug 25
New
Sep 2
First Quarter

Hourly Weather History & Observations

Time (EDT) Temp. Heat Index Dew Point Humidity Pressure Visibility Wind Dir Wind Speed Gust Speed Precip Events Conditions
12:54 AM 57.0 °F - 54.0 °F 89% 30.15 in 7.0 mi Calm Calm - N/A   Clear
1:54 AM 57.0 °F - 54.0 °F 89% 30.16 in 7.0 mi Calm Calm - N/A   Clear
2:37 AM 57.0 °F - 54.0 °F 89% 30.16 in 2.5 mi Calm Calm - N/A   Clear
2:44 AM 55.9 °F - 54.0 °F 93% 30.16 in 8.0 mi Calm Calm - N/A   Clear
2:54 AM 55.9 °F - 54.0 °F 93% 30.16 in 5.0 mi Calm Calm - N/A   Clear
3:39 AM 55.0 °F - 53.1 °F 93% 30.16 in 2.5 mi Calm Calm - N/A   Clear
3:47 AM 55.0 °F - 53.1 °F 93% 30.16 in 6.0 mi Calm Calm - N/A   Clear
3:54 AM 55.0 °F - 52.0 °F 89% 30.15 in 5.0 mi Calm Calm - N/A   Clear
5:54 AM 53.1 °F - 51.1 °F 93% 30.17 in 6.0 mi Calm Calm - N/A   Clear
6:54 AM 54.0 °F - 53.1 °F 97% 30.17 in 7.0 mi Calm Calm - N/A   Clear
7:54 AM 61.0 °F - 57.0 °F 87% 30.18 in 10.0 mi Calm Calm - N/A   Clear
8:54 AM 66.0 °F - 60.1 °F 81% 30.18 in 10.0 mi Calm Calm - N/A   Clear
9:54 AM 71.1 °F - 60.1 °F 68% 30.17 in 10.0 mi Calm Calm - N/A   Clear
10:54 AM 75.9 °F - 60.1 °F 58% 30.17 in 10.0 mi Variable 3.5 mph - N/A   Clear
11:54 AM 77.0 °F - 61.0 °F 58% 30.17 in 10.0 mi Variable 3.5 mph - N/A   Clear
12:54 PM 79.0 °F - 60.1 °F 52% 30.16 in 10.0 mi Calm Calm - N/A   Clear
1:54 PM 81.0 °F 81.1 °F 57.9 °F 45% 30.15 in 10.0 mi Variable 4.6 mph - N/A   Clear
2:54 PM 79.0 °F - 57.0 °F 47% 30.14 in 10.0 mi SSE 3.5 mph - N/A   Clear
3:54 PM 82.0 °F 81.7 °F 57.0 °F 42% 30.12 in 10.0 mi NNE 8.1 mph - N/A   Partly Cloudy
4:54 PM 81.0 °F 81.6 °F 60.1 °F 49% 30.11 in 10.0 mi North 9.2 mph - N/A   Clear
5:54 PM 79.0 °F - 57.0 °F 47% 30.11 in 10.0 mi NNE 10.4 mph - N/A   Clear
6:54 PM 77.0 °F - 57.9 °F 52% 30.10 in 10.0 mi NNE 4.6 mph - N/A   Clear
7:54 PM 71.1 °F - 60.1 °F 68% 30.10 in 10.0 mi Calm Calm - N/A   Clear
8:54 PM 64.9 °F - 59.0 °F 81% 30.09 in 10.0 mi Calm Calm - N/A   Clear
9:54 PM 64.9 °F - 57.9 °F 78% 30.10 in 10.0 mi Calm Calm - N/A   Clear
10:54 PM 63.0 °F - 57.9 °F 84% 30.10 in 10.0 mi ENE 3.5 mph - N/A   Clear
11:54 PM 68.0 °F - 60.1 °F 76% 30.09 in 10.0 mi East 5.8 mph - N/A   Clear